Location: Peebles
(55.6412°N, 3.1714°W)
Time: 05:00:54
(UTC+00:00)

USA 306 - Visible Passes

Search period start: 25 January 2022 00:00
Search period end: 04 February 2022 00:00
Orbit: 558 x 571 km, 54.0° (Epoch: 13 January)

Date Brightness Start Highest point End Pass type
(mag) Time Alt. Az. Time Alt. Az. Time Alt. Az.
26 Jan 5.2 19:00:05 10° SSE 19:00:35 11° SSE 19:00:35 11° SSE visible
27 Jan 4.8 18:58:30 10° S 19:00:23 17° SSE 19:00:23 17° SSE visible
28 Jan 4.4 18:57:10 10° SSW 19:00:05 23° SSE 19:00:05 23° SSE visible
28 Jan 5.7 20:35:39 10° WSW 20:36:04 13° WSW 20:36:04 13° WSW visible
29 Jan 4.0 18:56:00 10° SSW 18:59:39 29° SSE 18:59:42 29° SE visible
29 Jan 5.5 20:34:51 10° WSW 20:35:41 16° WSW 20:35:41 16° WSW visible
30 Jan 3.6 18:54:57 10° SW 18:58:48 35° SSE 18:59:16 34° SE visible
30 Jan 5.4 20:34:04 10° WSW 20:35:14 18° WSW 20:35:14 18° WSW visible
31 Jan 3.4 18:53:58 10° SW 18:57:57 42° SSE 18:58:45 38° SE visible
31 Jan 5.2 20:33:18 10° W 20:34:43 20° WSW 20:34:43 20° WSW visible
01 Feb 3.2 18:53:03 10° SW 18:57:08 50° SSE 18:58:11 39° ESE visible
01 Feb 5.1 20:32:31 10° W 20:34:09 22° W 20:34:09 22° W visible
02 Feb 3.1 18:52:11 10° WSW 18:56:19 57° SSE 18:57:35 39° ESE visible
02 Feb 5.0 20:31:45 10° W 20:33:32 24° W 20:33:32 24° W visible
03 Feb 3.0 18:51:19 10° WSW 18:55:30 63° SSE 18:56:56 38° ESE visible
03 Feb 4.9 20:30:59 10° W 20:32:53 26° W 20:32:53 26° W visible
